Regional Weather Roundup
Issued by NWS

Home | Current Version | Previous Version | Text Only | Print | Product List | Glossary On
Versions: 1 2 3 4 5 6 7 8 9 10 11 12 13 14 15 16 17 18 19 20 21 22 23 24 25 26 27
000
ASUS45 KPSR 170510
RWRAZ

ARIZONA HOURLY REGIONAL WEATHER ROUNDUP
NATIONAL WEATHER SERVICE PHOENIX AZ
1000 PM MST MON OCT 16 2017

NOTE: FAIR INDICATES FEW OR NO CLOUDS BELOW 12,000 FEET WITH NO
SIGNIFICANT WEATHER AND/OR OBSTRUCTIONS TO VISIBILITY.

AZZ001>003-036-170600-
NORTHWEST ARIZONA

CITY           SKY/WX    TMP DP  RH WIND       PRES   REMARKS
BULLHEAD CITY  CLEAR     75  23  14 N6        30.04S
KINGMAN        CLEAR     57  16  20 SE8       30.21S
$$

AZZ004>008-015-016-018-170600-
NORTH CENTRAL ARIZONA

CITY           SKY/WX    TMP DP  RH WIND       PRES   REMARKS
GRAND CANYON   CLEAR     34   4  28 NE3       30.42R
WILLIAMS       CLEAR     54  21  28 S10       30.41R
PRESCOTT       CLEAR     58  33  39 SW8       30.30R
FLAGSTAFF      PTCLDY    41  18  39 CALM      30.44R
PAYSON           N/A     61  30  31 CALM      30.33R
PAGE           PTCLDY    53  14  21 CALM      30.29R
$$

AZZ009>014-017-170600-
NORTHEAST ARIZONA

CITY           SKY/WX    TMP DP  RH WIND       PRES   REMARKS
WINSLOW        CLEAR     49   8  19 SW6       30.32R
SAINT JOHNS    CLEAR     56  20  24 S8        30.34R
WINDOW ROCK    CLEAR     38  10  31 CALM      30.42S
SHOW LOW       CLEAR     57  34  41 S9        30.41R
$$

AZZ540-542>544-546-548-170600-
GREATER PHOENIX AREA

CITY           SKY/WX    TMP DP  RH WIND       PRES   REMARKS
PHOENIX        CLEAR     83  42  23 E3        29.99R
BUCKEYE        CLEAR     77  32  19 N8        30.00R
LUKE AFB       CLEAR     74  37  26 NE8       29.99R
DEER VALLEY    CLEAR     80  33  18 NE8       30.02R
SCOTTSDALE     CLEAR     82  37  20 NE6       30.04R
MESA-GATEWAY   PTCLDY    73  41  31 E7        30.02S
$$

AZZ539-553-170600-
SOUTHWEST MARICOPA COUNTY AND PINAL COUNTY

CITY           SKY/WX    TMP DP  RH WIND       PRES   REMARKS
CASA GRANDE    NOT AVBL
$$

AZZ503-504-507>509-170600-
SOUTHEAST ARIZONA

CITY           SKY/WX    TMP DP  RH WIND       PRES   REMARKS
TUCSON         CLEAR     80  44  27 E6        30.12R
DAVIS-MONTHAN  CLEAR     79  41  25 VRB5      30.10R
NOGALES        CLEAR     75  46  35 NE10      30.19R
SIERRA VISTA   CLEAR     68  44  42 SE8       30.27S
DOUGLAS        CLEAR     71  45  39 E8        30.24R
SAFFORD        CLEAR     72  43  35 E8        30.20R
$$

AZZ532-170600-
SOUTHWEST ARIZONA

CITY           SKY/WX    TMP DP  RH WIND       PRES   REMARKS
YUMA           CLEAR     78  26  14 W5        29.97R
$$

CAZ041-043-047-048-061-525>527-560>570-170600-
SOUTHERN CALIFORNIA

CITY           SKY/WX    TMP DP  RH WIND       PRES   REMARKS
DOWNTOWN L.A.  CLEAR     75  49  39 CALM      29.99S
L.A. AIRPORT   CLEAR     74  53  48 SE5       30.00R
SAN DIEGO      CLEAR     76  44  32 CALM      30.02S
BURBANK        CLEAR     78  24  13 N5        30.02R
ONTARIO        PTCLDY    77  31  18 VRB3      30.04R
RIVERSIDE      CLEAR     75  38  26 E3        30.04R
PALM SPRINGS   CLEAR     80  25  13 NW6       30.02S
EL CENTRO NAS  CLEAR     73  16  11 W9        29.98S
IMPERIAL       CLEAR     74  32  21 W3        29.96S
BLYTHE         CLEAR     78   8   7 NW7       30.00R
NEEDLES        CLEAR     78   3   5 VRB7      30.05R
$$

NVZ020-UTZ003-170600-
SOUTHERN NEVADA-UTAH

CITY           SKY/WX    TMP DP  RH WIND       PRES   REMARKS
LAS VEGAS      PTCLDY    67  13  12 S5        30.14R
SALT LAKE CITY CLEAR     47  34  60 S3        30.32S
$$

NMZ009-TXZ055-170600-
NEW MEXICO-WEST TEXAS

CITY           SKY/WX    TMP DP  RH WIND       PRES   REMARKS
ALBUQUERQUE    CLEAR     56  22  26 SE6       30.37R
EL PASO        CLEAR     64  38  38 CALM      30.30S
$$


........................KEY........................
SKY/WX - SKY CONDITION/WEATHER
TMP    - TEMPERATURE IN FAHRENHEIT
DP     - DEW POINT IN FAHRENHEIT
RH     - RELATIVE HUMIDITY IN PERCENT
WIND   - DIRECTION AND SPEED IN MILES PER HOUR (MPH)
VRB    - VARIABLE WIND DIRECTION
PRES   - MEAN SEA LEVEL PRESSURE IN INCHES OF MERCURY
         F - FALLING PRESSURE   R - RISING PRESSURE
         S - STEADY PRESSURE
VSB    - VISIBILITY IN MILES
HX     - HEAT INDEX IN FAHRENHEIT
WCI    - WIND CHILL INDEX IN FAHRENHEIT
TC     - TEMPERATURE IN CELSIUS WHICH IS ALSO KNOWN AS
         TEMPERATURE IN CENTIGRADE
AFB    - AIR FORCE BASE
         LUKE AFB IS LUKE AIR FORCE BASE
         DAVIS-MONTHAN IS DAVIS-MONTHAN AIR FORCE BASE
NAS    - NAVAL AIR STATION
         EL CENTRO NAS IS EL CENTRO NAVAL AIR STATION
N/A    - NOT AVAILABLE





USA.gov is the U.S. government's official web portal to all federal, state and local government web resources and services.